Location: Alston School (historical)
(35.5076°N, 89.8251°W)
Time: 00:57:29
(UTC+00:00)

USA 267 - Pass Details

Date: 09 December 2025
Orbit: 1101 x 1107 km, 123.0° (Epoch: 10 January)

Event Time Altitude Azimuth Distance (km) Brightness Sun altitude
Rises 12:18:17 0° 48° (NE) 3,920 6.5 -8.0°
Reaches altitude 10° 12:20:50 10° 53° (NE) 2,960 6.0 -7.5°
Maximum altitude 12:27:12 53° 129° (SE) 1,323 4.2 -6.3°
Drops below altitude 10° 12:33:33 10° 205° (SSW) 2,951 5.5 -5.1°
Sets 12:36:05 0° 210° (SSW) 3,906 6.1 -4.7°
